Location: Newark
(2.0333°N, 45.3500°E)
Time: 01:50:45
(UTC+00:00)

Envisat - Visible Passes

Search period start: 22 September 2020 00:00
Search period end: 02 October 2020 00:00
Orbit: 764 x 766 km, 98.1° (Epoch: 21 September)

Date Brightness Start Highest point End Pass type
(mag) Time Alt. Az. Time Alt. Az. Time Alt. Az.
22 Sep 4.6 02:13:46 10° NNE 02:18:29 40° ESE 02:23:12 10° S visible
23 Sep 6.1 01:39:12 10° ENE 01:41:47 14° ESE 01:44:22 10° SE visible
23 Sep 6.3 15:50:46 10° SW 15:52:43 12° WSW 15:54:40 10° W visible
24 Sep 4.9 15:11:27 10° SSW 15:16:02 35° WSW 15:20:37 10° NW visible
25 Sep 5.2 02:02:47 10° NE 02:07:09 29° ESE 02:11:30 10° SSE visible
26 Sep 6.0 15:38:11 10° SW 15:41:24 17° WSW 15:44:36 10° WNW visible
28 Sep 5.8 01:52:00 10° NE 01:55:49 22° ESE 01:59:38 10° SSE visible
29 Sep 5.7 15:26:07 10° SSW 15:30:04 23° WSW 15:34:01 10° NW visible
30 Sep 4.4 02:16:22 10° NNE 02:21:11 45° ESE 02:26:00 10° S visible
01 Oct 6.1 01:41:30 10° ENE 01:44:29 16° ESE 01:47:29 10° SE visible
01 Oct 6.6 15:54:21 10° WSW 15:55:25 11° WSW 15:56:29 10° W visible
